Regional Weather Roundup
Issued by NWS

Home | Current Version | Previous Version | Text Only | Print | Product List | Glossary Off
Versions: 1 2 3 4 5 6 7 8 9 10 11 12 13 14 15 16 17 18 19 20 21 22 23 24 25 26 27 28 29 30 31 32 33 34 35 36 37 38 39 40 41 42 43 44 45 46 47 48 49 50

000
ASUS43 KDTX 011710
RWRMI
MICHIGAN HOURLY REGIONAL WEATHER ROUNDUP
NATIONAL WEATHER SERVICE DETROIT/PONTIAC MI
100 PM EDT FRI AUG 01 2014

NOTE: "FAIR" INDICATES FEW OR NO CLOUDS BELOW 12,000 FEET WITH NO
SIGNIFICANT WEATHER AND/OR OBSTRUCTION TO VISIBILITY.

MIZ047>049-052>055-059>063-066>070-074>076-081>083-011800-
SOUTHEAST LOWER MICHIGAN

CITY           SKY/WX    TMP DP  RH WIND       PRES   REMARKS
ADRIAN         PTSUNNY   80  60  50 SW13      30.11F
ALMA           MOSUNNY   78  63  60 SW7       30.09S
ANN ARBOR      MOSUNNY   82  58  43 W8        30.11S
BAD AXE        SUNNY     77  63  62 W6        30.09S
DETROIT CITY   MOSUNNY   83  59  44 VRB3      30.09F
DETROIT        MOSUNNY   81  61  50 S8        30.10F
FLINT          SUNNY     80  62  54 SW7       30.10S
GROSSE ILE     SUNNY     75  66  73 S6        30.09F
HILLSDALE      SUNNY     80  60  50 W7        30.13S
HOWELL         MOSUNNY   80  58  47 SW6       30.11S

CITY           SKY/WX    TMP DP  RH WIND       PRES   REMARKS
JACKSON        MOSUNNY   79  57  46 VRB7      30.11F
LAMBERTVILLE   MOSUNNY   81  61  50 W6        30.11F
LANSING        MOSUNNY   79  60  52 W7        30.10S
LAPEER         NOT AVBL
MASON          MOSUNNY   79  58  49 W5        30.11S
MONROE         MOSUNNY   81  63  54 SW6       30.09S
MT. CLEMENS    MOSUNNY   79  65  60 SE9       30.08F
PONTIAC        PTSUNNY   79  58  48 W10       30.10S
PORT HOPE        N/A     72  64  76 N5        30.08R
PORT HURON     SUNNY     79  64  61 SW5       30.10S
TRI CITIES     SUNNY     79  64  60 VRB5      30.09S
YPSILANTI      MOSUNNY   85  60  42 SW10      30.11S
$$
MIZ043>046-050>051-056>058-064>065-071>073-077>080-011800-
SOUTHWEST LOWER MICHIGAN

CITY           SKY/WX    TMP DP  RH WIND       PRES   REMARKS
BATTLE CREEK   MOSUNNY   80  60  50 W12       30.11S
BENTON HARBOR  MOSUNNY   77  57  50 W9        30.11S
BIG RAPIDS     PTSUNNY   78  59  52 W6        30.08S
COLDWATER      MOSUNNY   81  58  45 W8        30.12S
HOLLAND        SUNNY     80  63  55 W6        30.11S
GRAND RAPIDS   MOSUNNY   83  60  45 W14G22    30.10S
KALAMAZOO      MOSUNNY   80  57  45 W12       30.11S
MARSHALL       MOSUNNY   79  58  48 SW7       30.10F
MUSKEGON       MOSUNNY   76  61  59 SW8       30.09S
$$
MIZ016>042-011800-
NORTHERN LOWER MICHIGAN

CITY           SKY/WX    TMP DP  RH WIND       PRES   REMARKS
ALPENA         SUNNY     77  54  44 VRB7      30.08S
BEAVER ISLAND  SUNNY     72  59  63 W6        30.08S
BELLAIRE       SUNNY     78  46  32 NE3       30.06F
CADILLAC       MOSUNNY   77  57  50 CALM      30.08F
CHARLEVOIX     SUNNY     74  56  52 NW5       30.10S
FRANKFORT      SUNNY     76  61  58 W5        30.06F
GAYLORD        SUNNY     76  43  30 N5        30.09S
GRAYLING       SUNNY     78  49  36 CALM      30.10S
HARBOR SPRINGS SUNNY     73  52  47 SW5       30.07S
HOUGHTON LAKE  SUNNY     76  56  49 SW6       30.09S
MANISTEE       SUNNY     77  61  57 W6        30.07F
OSCODA         MOSUNNY   76  62  61 E8        30.07S
PELLSTON       SUNNY     77  51  40 CALM      30.07S
TRAVERSE CITY  MOSUNNY   78  52  40 N5        30.06S
$$
MIZ007>008-015-011800-
EASTERN UPPER MICHIGAN

CITY           SKY/WX    TMP DP  RH WIND       PRES   REMARKS
KINROSS        SUNNY     72  54  53 N5        30.07S
MACKINAC ISLAN SUNNY     71  53  53 CALM      30.07F
NEWBERRY       SUNNY     72  55  55 N6        30.07S
S. S. MARIE    SUNNY     73  52  47 NW6       30.07R
$$
MIZ004>006-011>014-085-011800-
CENTRAL UPPER MICHIGAN

CITY           SKY/WX    TMP DP  RH WIND       PRES   REMARKS
MANISTIQUE     MOSUNNY   71  53  52 S6        30.07S
ESCANABA       SUNNY     70  54  56 SE8       30.06F
MENOMINEE      SUNNY     73  61  64 SE6       30.05S
SAWYER-GWINN   SUNNY     70  52  52 NE8       30.08R
$$
MIZ001>003-009>011-084-011800-
WESTERN UPPER MICHIGAN

CITY           SKY/WX    TMP DP  RH WIND       PRES   REMARKS
IRON MOUNTAIN  SUNNY     77  52  41 W5        30.05S
HOUGHTON       SUNNY     70  50  49 E9        30.08R
COPPER HARBOR    N/A     59  52  77 E3        30.09R
$$

ABBREVIATIONS USED IN REMARKS
   TC - TEMPERATURE IN CELSIUS
  WCI - WIND CHILL INDEX
   HX - HEAT INDEX
  VSB - VISIBILITY




USA.gov is the U.S. government's official web portal to all federal, state and local government web resources and services.